Location: Unspecified
(54.1780°N, 0.0000°E)
Time: 16:13:22
(UTC+00:00)

Altair - Pass Details

Date: 20 June 2019
Orbit: 1501 x 1683 km, 47.2° (Epoch: 21 July)

Event Time Altitude Azimuth Distance (km) Brightness Sun altitude
Rises 23:48:46 0° 265° (W) 4,798 10.1 -12.3°
Reaches altitude 10° 23:51:52 10° 262° (W) 3,836 9.5 -12.4°
Maximum altitude 00:01:24 58° 187° (S) 1,881 7.6 -12.4°
Drops below altitude 10° 00:11:13 10° 112° (ESE) 3,939 9.4 -12.4°
Sets 00:14:27 0° 109° (ESE) 4,932 10.0 -12.3°
